Regional Weather Roundup
Issued by NWS

Home | Current Version | Previous Version | Graphics & Text | Print | Product List | Glossary Off
Versions: 1 2 3 4 5 6 7 8 9 10 11 12 13 14 15 16 17 18 19 20 21 22 23 24 25 26 27

000
ASUS43 KDMX 301507
RWRIA

WEATHER ROUNDUP FOR IOWA
NATIONAL WEATHER SERVICE DES MOINES IA
1000 AM CDT THU OCT 30 2014

NOTE: "FAIR" INDICATES FEW OR NO CLOUDS BELOW 12,000 FEET WITH NO
SIGNIFICANT WEATHER AND/OR OBSTRUCTIONS TO VISIBILITY.

* - THESE STATIONS ARE NOT NWS STATIONS...THUS NOT UNDER NWS
QUALITY CONTROL.  THEY ALSO DO NOT REPORT WEATHER SUCH
AS PRECIPITATION OR FOG.

IAZ001>003-012>014-020>022-031>034-043>046-301600-
   NORTHWEST IOWA

CITY           SKY/WX    TMP DP  RH WIND       PRES   REMARKS
CARROLL *      MOSUNNY   46  37  71 SW5       30.02S
CHEROKEE *     MOSUNNY   47  37  68 NW6       30.02S
DENISON *      MOSUNNY   45  36  70 SW6       30.01S
LE MARS *      SUNNY     46  37  71 NW12      30.05R
ORANGE CITY *  SUNNY     46  37  71 NW15      30.03R
SHELDON *      SUNNY     46  36  66 NW12      30.02R
SIOUX CITY     SUNNY     49  37  63 NW12      30.06R
SPENCER        MOSUNNY   46  34  62 W6        30.02R
STORM LAKE *   PTSUNNY   45  36  70 W8        30.02R
$$

IAZ055>058-069>071-079>083-090>094-301600-
   SOUTHWEST IOWA

CITY           SKY/WX    TMP DP  RH WIND       PRES   REMARKS
ATLANTIC *     SUNNY     46  37  71 CALM      30.02S
AUDUBON *      SUNNY     48  37  66 SW3       30.02S
CLARINDA *     SUNNY     48  41  76 VRB3      30.04F
COUNCIL BLFS * SUNNY     48  37  66 NW12      30.03R
CRESTON *      SUNNY     46  37  71 CALM      30.02S
HARLAN  *      MOSUNNY   46  39  76 NW6       30.06S
LAMONI         SUNNY     49  38  65 CALM      30.02R
RED OAK *      SUNNY     48  37  66 NW6       30.04S
SHENANDOAH *   SUNNY     48  39  71 CALM      30.05R
$$

IAZ047>049-059>061-072>074-084-301600-
   CENTRAL IOWA

CITY           SKY/WX    TMP DP  RH WIND       PRES   REMARKS
AMES           MOSUNNY   46  38  73 CALM      30.04R
ANKENY *       SUNNY     50  39  66 S7        30.03R
CHARITON *     MOSUNNY   48  37  66 E8        30.03S
DES MOINES     MOSUNNY   50  38  63 S8        30.02F
GRINNELL*      PTSUNNY   46  38  76 E5        30.06R
KNOXVILLE *    MOSUNNY   46  37  71 S10       30.02F
MARSHALLTOWN   CLOUDY    44  38  79 SE7       30.03S
PELLA *        MOSUNNY   49  38  66 SE8       30.04F
PERRY *          N/A     49  38  66 S8        30.03S
$$

IAZ004>006-015-016-023>025-035-036-301600-
   NORTH CENTRAL IOWA

CITY           SKY/WX    TMP DP  RH WIND       PRES   REMARKS
ALGONA *       CLOUDY    45  39  81 SE6       30.03S
CLARION *      MOSUNNY   46  39  76 VRB6      30.04S
ESTHERVILLE    CLOUDY    43  37  79 E5        30.02S
FORT DODGE *   CLOUDY    45  36  70 SE3         N/A
MASON CITY     CLOUDY    42  38  85 SE7       30.06R
FOREST CITY *  CLOUDY    43  39  87 SE5       30.04S
IOWA FALLS *   PTSUNNY   44  38  78 CALM      30.06R
$$

IAZ007>011-017>019-026>030-037>042-050>054-066-301600-
   NORTHEAST IOWA

CITY           SKY/WX    TMP DP  RH WIND       PRES   REMARKS
CEDAR RAPIDS   LGT RAIN  42  37  82 S12       30.06F
CHARLES CITY * CLOUDY    43  36  75 SE5       30.07S
CLINTON *      CLOUDY    43  36  75 SW3       30.15S
DECORAH *      CLOUDY    41  36  81 SW5       30.07S
DUBUQUE        CLOUDY    41  37  86 S5        30.09F
MONTICELLO *   CLOUDY    43  37  81 SE7       30.09F
OELWEIN *      CLOUDY    43  37  81 S10       30.07F
WATERLOO       CLOUDY    43  36  76 SE5       30.06S
$$

IAZ064-065-067-068-078-301600-
   EAST CENTRAL IOWA

CITY           SKY/WX    TMP DP  RH WIND       PRES   REMARKS
DAVENPORT      CLOUDY    44  34  67 S7        30.12R
IOWA CITY      CLOUDY    42  38  85 SE7       30.11F
MT. PLEASANT * CLOUDY    43  37  79 SE3       30.09F
MUSCATINE *    CLOUDY    41  36  81 CALM      30.12S
QUAD CITIES    CLOUDY    43  36  76 CALM      30.11S
$$

IAZ062-063-075>077-085>089-095>099-301600-
   SOUTHEAST IOWA

CITY           SKY/WX    TMP DP  RH WIND       PRES   REMARKS
BURLINGTON     CLOUDY    45  38  76 S7        30.09F
FAIRFIELD *    CLOUDY    45  37  76 E8        30.07F
FORT MADISON * CLOUDY    46  39  76 S7        30.09F
KEOKUK *       PTSUNNY   46  39  76 SE7       30.07F
OSKALOOSA *      N/A     44  38  77 SE10      30.05F
CENTERVILLE *    N/A     46  39  76 E6        30.03F
OTTUMWA        PTSUNNY   45  38  76 E8        30.04F
WASHINGTON *   CLOUDY    45  41  87 SE6       30.09S
$$

ABBREVIATIONS USED IN REMARKS
   TC - TEMPERATURES IN CELSIUS
  WCI - WIND CHILL INDEX
   HX - HEAT INDEX
  VSB - VISIBILITY
$$




USA.gov is the U.S. government's official web portal to all federal, state and local government web resources and services.